FW5860 Weather Reports


time (UTC)temp
C
wind
direction
speed
KPH
gust
KPH
rain 1hr
cm
rain 24hr
cm
rain mn
cm
humidity
%
barometer
mb
20260906060032 18 153 0.0 0.0 0.00 0.00 0.00 1 1012.5
20260906054527 19 153 0.0 0.0 0.00 0.00 0.00 1 1012.6
20260906053123 19 153 0.0 0.0 0.00 0.00 0.00 1 1012.9
20260906051536 19 153 0.0 0.0 0.00 0.00 0.00 1 1013.1
20260906050014 20 153 0.0 0.0 0.00 0.00 0.00 1 1013.0
20260906044510 19 155 0.0 0.0 0.00 0.00 0.00 1 1012.9
20260906043107 19 153 0.0 0.0 0.00 0.00 0.00 1 1013.0
20260906041502 19 154 0.0 0.0 0.00 0.00 0.00 1 1013.0
20260906040058 19 154 0.0 0.0 0.00 0.00 0.00 1 1013.1
20260906034613 19 153 0.0 0.0 0.00 0.00 0.00 1 1013.2
20260906033049 19 153 0.0 0.0 0.00 0.00 0.00 1 1013.5
20260906031550 19 153 0.0 0.0 0.00 0.00 0.00 1 1013.6
20260906030043 19 153 0.0 0.0 0.00 0.00 0.00 1 1013.6
20260906024537 19 153 0.0 0.0 0.00 0.00 0.00 1 1013.4
20260906023034 20 154 0.0 0.0 0.00 0.00 0.00 1 1013.1
20260906021530 20 153 0.0 0.0 0.00 0.00 0.00 1 1013.1
20260906020029 20 153 0.0 0.0 0.00 0.00 0.00 1 1013.0
20260906014529 20 154 0.0 0.0 0.00 0.00 0.00 1 1012.8
20260906013042 20 154 0.0 0.0 0.00 0.00 0.00 1 1012.8
20260906011532 20 153 0.0 0.0 0.00 0.00 0.00 1 1012.8
20260906010029 20 153 0.0 0.0 0.00 0.00 0.00 1 1012.6
20260906004521 20 153 0.0 0.0 0.00 0.00 0.00 1 1012.4
20260906003018 21 153 0.0 0.0 0.00 0.00 0.00 1 1012.3
20260906001510 21 153 0.0 0.0 0.00 0.00 0.00 1 1012.3
20260906000006 21 153 0.0 0.0 0.00 0.00 0.00 1 1012.1
20260905234503 21 154 0.0 0.0 0.00 0.00 0.00 1 1011.9
20260905233058 21 153 0.0 0.0 0.00 0.00 0.00 1 1011.9
20260905231555 22 153 0.0 0.0 0.00 0.00 0.00 1 1011.7
20260905230054 22 155 0.0 1.6 0.00 0.00 0.00 1 1011.8
20260905224545 22 121 0.0 0.0 0.00 0.00 0.00 1 1011.8
20260905223047 22 36 0.0 0.0 0.00 0.00 0.00 1 1011.9
20260905221540 22 36 0.0 0.0 0.00 0.00 0.00 1 1011.7
20260905220038 22 36 0.0 0.0 0.00 0.00 0.00 1 1011.6
20260905214532 22 35 0.0 1.6 0.00 0.00 0.00 1 1011.7
20260905213027 22 41 0.0 0.0 0.00 0.00 0.00 1 1012.0
20260905211521 22 41 0.0 0.0 0.00 0.00 0.00 1 1012.4
20260905210031 21 41 0.0 0.0 0.00 0.00 0.00 1 1012.3
20260905204513 21 41 0.0 0.0 0.00 0.00 0.00 1 1012.3
20260905203008 21 41 0.0 3.2 0.00 0.00 0.00 1 1012.1
20260905201506 21 49 0.0 0.0 0.00 0.00 0.00 1 1012.5
20260905200000 21 27 0.0 0.0 0.00 0.00 0.00 1 1012.2
20260905194557 21 25 0.0 0.0 0.00 0.00 0.00 1 1012.4
20260905193052 21 25 0.0 0.0 0.00 0.00 0.00 1 1012.5
20260905191549 20 25 0.0 0.0 0.00 0.00 0.00 1 1012.6
20260905190047 20 24 0.0 0.0 0.00 0.00 0.00 1 1013.2
20260905184545 20 4 0.0 0.0 0.00 0.00 0.00 1 1012.8
20260905183037 19 4 0.0 0.0 0.00 0.00 0.00 1 1012.6
20260905181533 18 359 0.0 1.6 0.00 0.00 0.00 1 1012.6
20260905180028 19 283 0.0 19.3 0.00 0.00 0.00 19 1013.2
20260905174524 23 354 14.5 35.4 0.00 0.00 0.00 41 1013.3
20260905173019 25 318 0.0 0.0 0.00 0.00 0.00 54 1012.0
20260905171527 28 318 0.0 0.0 0.00 0.00 0.00 63 1012.1
20260905170015 31 46 0.0 1.6 0.00 0.00 0.00 57 1012.0
20260905164509 30 70 0.0 4.8 0.00 0.00 0.00 57 1012.2
20260905163005 30 44 0.0 3.2 0.00 0.00 0.00 60 1012.6
20260905161501 30 141 0.0 1.6 0.00 0.00 0.00 63 1012.6
20260905160107 29 84 0.0 3.2 0.00 0.00 0.00 63 1012.7
20260905154615 29 315 0.0 1.6 0.00 0.00 0.00 65 1012.7
20260905153047 29 248 0.0 1.6 0.00 0.00 0.00 64 1012.7
20260905151545 28 27 0.0 4.8 0.00 0.00 0.00 65 1012.9
20260905150045 28 13 0.0 1.6 0.00 0.00 0.00 66 1013.1
20260905144538 28 325 0.0 4.8 0.00 0.00 0.00 67 1013.0
20260905143031 27 50 0.0 6.4 0.00 0.00 0.00 67 1013.2
20260905141527 28 20 0.0 1.6 0.00 0.00 0.00 67 1013.4
20260905140023 27 20 0.0 1.6 0.00 0.00 0.00 66 1013.5
20260905134522 27 323 0.0 1.6 0.00 0.00 0.00 65 1013.7
20260905133015 27 40 0.0 0.0 0.00 0.00 0.00 66 1013.9
20260905131529 27 149 0.0 0.0 0.00 0.00 0.00 65 1014.1
20260905130010 25 149 0.0 0.0 0.00 0.00 0.00 45 1014.3
20260905124506 23 149 0.0 0.0 0.00 0.00 0.00 1 1014.3
20260905123001 21 149 0.0 0.0 0.00 0.00 0.00 1 1014.1
20260905121555 20 149 0.0 0.0 0.00 0.00 0.00 1 1014.0
20260905120054 19 149 0.0 0.0 0.00 0.00 0.00 1 1013.8
20260905114559 19 148 0.0 0.0 0.00 0.00 0.00 1 1013.5
20260905113042 -17 0.0 0.0 0.00 0.00 0.00 1013.3
20260905111603 -17 0.0 0.0 0.00 0.00 0.00 1013.1
20260905110042 -17 0.0 0.0 0.00 0.00 0.00 1012.9
20260905104543 -17 0.0 0.0 0.00 0.00 0.00 1012.7
20260905103029 -17 0.0 0.0 0.00 0.00 0.00 1012.7
20260905101531 -17 0.0 0.0 0.00 0.00 0.00 1012.7
20260905100024 -17 0.0 0.0 0.00 0.00 0.00 1012.6
20260905094530 -17 0.0 0.0 0.00 0.00 0.00 1012.6
20260905093016 -17 0.0 0.0 0.00 0.00 0.00 1012.7
20260905091511 -17 0.0 0.0 0.00 0.00 0.00 1012.7
20260905090009 -17 0.0 0.0 0.00 0.00 0.00 1012.8
20260905084502 -17 0.0 0.0 0.00 0.00 0.00 1013.0
20260905083059 -17 0.0 0.0 0.00 0.00 0.00 1013.5
20260905081557 -17 0.0 0.0 0.00 0.00 0.00 1013.6
20260905080106 19 150 0.0 0.0 0.00 0.00 0.00 1 1013.7
20260905074558 19 149 0.0 0.0 0.00 0.00 0.00 1 1013.8
20260905073044 19 149 0.0 0.0 0.00 0.00 0.00 1 1013.9
20260905071547 19 149 0.0 0.0 0.00 0.00 0.00 1 1014.0
20260905070037 19 149 0.0 0.0 0.00 0.00 0.00 1 1014.1
20260905064533 19 149 0.0 0.0 0.00 0.00 0.00 1 1014.2
20260905063028 20 149 0.0 0.0 0.00 0.00 0.00 1 1014.4
20260905061530 20 149 0.0 0.0 0.00 0.00 0.00 1 1014.3